Flag for Switzerland Weather past 2 weeks in Baar, Zug, Switzerland

Now
53 °F

Cool.


Feels Like: 50 °F
Forecast: 33 / 63 °F
Wind: 9 mph from East

Location: Zurich Town / Ville.

Current Time: Apr 18, 2015 at 4:23:50 PM

Latest Report: Apr 18, 2015 at 3:00 PM


Visibility: N/A

Pressure: 30.16 "Hg

Humidity: 40%

Dew point: 29 °F

Location of BaarLocation

Historic Weather in Baar — Graph

°F

Baar temperature yesterday

Maximum temperature yesterday: 55 °F (at 1:00 AM)
Minimum temperature yesterday: 49 °F (at 11:00 PM)
Average temperature yesterday: 53 °F

Past Weeks' High & Low Weather Summary

 TemperatureHumidityPressure
High72 °F (Apr 15, 5:00 PM)97% (Apr 4, 4:00 AM)30.61 "Hg (Apr 4, 4:00 AM)
Low30 °F (Apr 6, 7:00 AM)19% (Apr 8, 6:00 PM)29.85 "Hg (Apr 4, 5:00 PM)
Average50 °F59%30.24 "Hg
* Reported Apr 3 3:00 PM — Apr 18 3:00 PM, Baar, Weather by CustomWeather, © 2015

Note: Actual official high and low records may vary slightly from our data, if they occured in-between our weather recording intervals... More about our weather records

Advertising

Baar weather history for previous 24 hours

 ConditionsComfort  
Time TempWeatherWind HumidityBarometerVisibility
3:00 PM
Sat, Apr 18
53 °FCool.9 mph40%30.16 "HgN/A
2:00 PM50 °FCool.8 mph48%30.17 "HgN/A
1:00 PM50 °FCool.10 mph53%30.17 "HgN/A
12:00 PM47 °FCool.9 mph58%30.19 "HgN/A
11:00 AM47 °FCool.7 mph66%30.18 "HgN/A
10:00 AM43 °FQuite cool.7 mph78%30.17 "HgN/A
9:00 AM42 °FQuite cool.8 mph85%30.16 "HgN/A
8:00 AM42 °FOvercast.6 mph89%30.16 "HgN/A
7:00 AM41 °FQuite cool.9 mph93%30.14 "HgN/A
6:00 AM42 °FQuite cool.12 mph93%30.12 "HgN/A
4:00 AM44 °FQuite cool.8 mph92%30.09 "HgN/A
3:00 AM44 °FQuite cool.6 mph93%30.09 "HgN/A
2:00 AM44 °FQuite cool.13 mph93%30.09 "HgN/A
1:00 AM49 °FCool.1 mph96%30.06 "HgN/A
12:00 AM48 °FCool.1 mph94%30.04 "HgN/A
11:00 PM
Fri, Apr 17
49 °FCool.5 mph96%30.03 "HgN/A
10:00 PM49 °FCool.6 mph96%30.01 "HgN/A
9:00 PM52 °FCool.5 mph94%29.98 "HgN/A
8:00 PM52 °FCool.3 mph95%29.97 "HgN/A
7:00 PM52 °FCool.3 mph95%29.96 "HgN/A
6:00 PM52 °FCool.3 mph95%29.96 "HgN/A
5:00 PM52 °FCool.8 mph95%29.96 "HgN/A
4:00 PM53 °FCool.5 mph93%29.96 "HgN/A
Weather by CustomWeather, © 2015

See weather overviewHow to use our weather pages